Regional Weather Roundup
Issued by NWS New Orleans/Baton Rouge, LA

Home | Current Version | Previous Version | Text Only | Print | Product List | Glossary On
Versions: 1 2 3 4 5 6 7 8 9 10 11 12 13 14 15 16 17 18 19 20 21 22 23 24 25 26 27 28 29 30 31 32 33 34 35 36 37 38 39 40 41 42 43 44 45 46 47 48 49 50
369
ASUS44 KLIX 210401
RWRLIX
NEW ORLEANS REGIONAL WEATHER ROUNDUP
NATIONAL WEATHER SERVICE NEW ORLEANS LA
1100 PM CDT SUN APR 20 2014

NOTE: "FAIR" INDICATES FEW OR NO CLOUDS BELOW 12,000 FEET WITH NO
      SIGNIFICANT WEATHER AND/OR OBSTRUCTIONS TO VISIBILITY.
      SKY/WX - SKY CONDITION AND SIGNIFICANT WEATHER.
      TMP - AIR TEMPERATURE.     DP    - DEWPOINT TEMPERATURE.
      RH  - RELATIVE HUMIDITY.   PRES  - PRESSURE.
      HI  - HEAT INDEX.          WCI   - WIND CHILL INDEX.

*  THESE STATIONS ARE NOT NWS OR FAA STATIONS AND ARE NOT UNDER
   NWS QUALITY CONTROL.

LAZ038-040-048-061>063-065>067-069-210500-
SOUTHEAST LOUISIANA

CITY           SKY/WX    TMP DP  RH WIND       PRES   REMARKS
N.O. AUDUBON     N/A     67  61  79 MISG        N/A
N.O. INTL ARPT PTCLDY    66  62  87 SE9       30.14R
N.O. LAKEFRONT CLEAR     65  61  87 SE9       30.15R
N.O. DOWNTOWN*   N/A     66  57  72 S5        30.15S
SLIDELL        CLEAR     63  58  83 SE5       30.14R
BATON ROUGE    CLEAR     69  54  58 SW7       30.11S
BOOTHVILLE     CLEAR     61  58  90 E6        30.16R
BELLE CHASSE   CLEAR    N/A N/A N/A SE6       30.14R
BOGALUSA*        N/A     64  58  81 S5        30.16R
GALLIANO*      NOT AVBL
NEW ROADS*     NOT AVBL
GONZALES*        N/A     65  59  81 CALM      30.11S
HAMMOND*       NOT AVBL
HOUMA*           N/A     62  58  87 CALM      30.13S
PORT FOURCHON* PTCLDY    66  61  82 SE13      30.15S

$$

MSZ070-080>082-210500-
SOUTHERN MISSISSIPPI

CITY           SKY/WX    TMP DP  RH WIND       PRES   REMARKS
MCCOMB         CLEAR     61  53  75 E3        30.12S
GULFPORT       CLEAR     65  58  78 SE8       30.15S
BILOXI         CLEAR     64  59  84 S7        30.15S
PASCAGOULA     CLEAR     58  57  97 CALM      30.15F FOG

$$

COASTAL OBSERVATIONS
LAKE AND NEARSHORE STATIONS

STATION/POSITION TIME  TEMP    WIND        PRES    WAVE
                       AIR SEA DIR/SP/G            HT/PER
                 (UTC) (F)     (DEG/KT/KT) (MB)    (FT/S)
PASCAGOULA       0300   65     140/  6/  8 1020.3
WAVELAND YACHT   0300   65 72  150/ 10/ 12 1019.9
GRAND ISLE       0300   65 69  130/  7/ 11 1021.1
SOUTHWEST PASS   0300   64 59  100/ 14/ 16 1021.2
NEW CANAL        0300   66 68  150/  5/  9 1020.9
SHELL BEACH      0300   64 67  120/ 11/ 13 1020.6

OFFSHORE STATIONS

STATION/POSITION TIME  TEMP    WIND        PRES    WAVE
                       AIR SEA DIR/SP/G            HT/PER
                 (UTC) (F)     (DEG/KT/KT) (MB)    (FT/S)
64 S DAUPHIN ISL 0302   64 70   80/ 14/ 17 1021.1

$$




USA.gov is the U.S. government's official web portal to all federal, state and local government web resources and services.